Wind_Speed
12 13 12 12 11 11 11 13 14 14 14 15 15 16 16 16 16 17 18 19 19 19 20 22 22 22 22 22 22 22 22 23 22 23 23 23 23 24 24 24 25 25 25
13 13 12 12 12 12 12 13 14 14 15 16 16 16 16 17 17 17 18 19 19 20 20 21 22 23 23 23 23 23 23 24 24 24 25 25 25 26 26 26 26 27 27
12 12 12 13 13 13 13 12 12 13 14 15 15 16 17 17 18 18 18 19 20 20 21 22 23 23 23 24 24 25 25 26 26 26 26 27 27 28 28 29 29 30 30
12 12 12 13 12 12 12 12 12 13 13 13 14 15 16 17 17 17 18 19 20 20 21 21 22 23 23 24 25 26 26 26 27 27 28 29 30 30 31 31 32 33 33
11 11 11 11 12 12 12 12 12 12 13 13 14 15 16 16 16 17 17 18 19 20 21 22 22 23 24 25 25 25 26 26 27 28 29 30 31 31 32 33 34 34 35
11 11 11 12 12 12 12 12 12 13 13 14 15 16 16 16 16 17 18 19 20 21 21 22 23 23 24 24 25 25 26 27 28 29 30 31 31 32 33 33 34 34 35
11 11 11 11 11 12 12 12 13 13 14 14 15 16 16 17 17 17 17 18 19 19 21 22 23 24 24 25 25 26 26 27 28 29 30 31 32 33 34 35 36 36 36
12 11 11 12 12 12 12 12 12 13 14 14 15 16 17 17 18 18 18 18 18 19 20 21 23 24 25 25 26 26 27 28 29 30 31 32 32 33 34 35 35 35 35
13 12 12 12 12 12 12 13 12 13 13 14 15 16 16 16 16 17 17 18 19 19 20 21 22 23 24 25 27 28 29 30 31 32 32 33 34 34 34 34 35 35 34
12 12 12 12 13 13 13 14 14 14 14 14 15 15 15 15 16 17 18 19 19 20 21 21 22 23 24 25 26 28 29 29 30 31 32 33 33 33 33 34 35 35 35
13 14 14 14 14 14 15 15 15 15 15 15 15 15 16 16 18 18 19 20 20 21 22 22 22 23 24 25 27 27 28 29 29 30 32 33 33 34 34 34 35 35 36
15 15 15 15 15 15 16 15 15 16 16 16 16 16 17 17 17 18 19 20 20 21 21 21 22 23 24 24 25 26 28 29 30 31 32 33 34 34 35 36 36 38 39
16 16 16 16 16 16 15 15 15 16 16 17 17 17 18 17 18 19 20 20 21 21 21 22 22 23 23 25 26 27 28 29 31 32 33 34 35 36 37 38 40 42 44
16 16 17 16 16 15 15 16 16 16 17 16 16 16 17 17 18 19 20 20 21 21 22 22 23 24 25 26 27 28 30 31 33 35 36 37 38 39 40 42 44 45 46
17 17 17 16 16 16 16 16 17 17 17 17 17 17 17 18 18 19 20 21 22 22 23 24 25 26 27 28 29 31 33 35 36 38 39 40 41 42 43 45 45 46 46
19 19 18 17 17 16 17 17 17 17 17 17 17 18 18 19 19 20 21 22 23 24 25 26 27 28 29 31 32 34 36 37 39 39 41 41 42 43 44 44 45 45 45
19 19 18 18 17 17 17 18 17 17 17 18 18 18 19 20 21 21 22 23 24 25 27 27 28 30 31 33 34 36 37 38 39 39 40 41 41 42 42 42 43 43 43
19 19 19 19 18 18 18 18 18 18 18 18 18 19 19 20 21 22 23 24 25 26 28 29 30 32 33 35 36 37 37 38 38 39 39 39 39 40 40 40 40 40 41
19 19 19 18 18 18 19 19 18 18 18 18 18 19 20 21 22 23 24 25 26 28 29 31 32 33 35 36 36 37 37 37 37 37 37 38 37 37 38 38 38 38 38
18 18 18 18 18 18 19 18 17 17 18 19 20 21 22 23 24 25 26 27 28 29 31 33 34 34 35 36 36 36 36 36 36 36 37 37 36 36 36 37 36 36 36
18 18 18 18 18 18 18 18 18 19 19 20 21 22 23 24 25 26 28 29 30 31 33 34 35 35 35 35 35 35 35 36 36 36 36 36 36 36 35 35 35 35 35
19 19 18 17 17 17 17 18 19 20 20 21 22 23 24 25 26 28 29 30 31 33 34 34 35 35 35 35 34 34 34 35 35 35 35 35 34 34 34 34 34 34 34
17 17 17 17 17 18 19 19 19 20 21 21 23 24 25 26 28 29 30 31 32 33 34 34 34 34 35 34 34 34 34 34 34 34 34 34 34 33 33 33 32 32 32
16 16 17 17 18 19 19 20 21 21 22 23 25 26 27 28 29 30 31 32 33 33 34 34 34 34 33 33 32 33 33 33 33 33 33 32 32 31 31 31 31 31 30
16 17 17 18 19 19 20 21 23 24 24 25 26 27 28 29 30 31 32 32 33 33 33 33 32 32 32 32 31 31 32 32 32 32 31 31 31 30 30 30 30 30 29
16 17 18 19 20 20 21 23 23 24 25 26 27 28 29 30 31 31 31 32 32 32 31 31 31 31 31 31 30 31 31 31 31 31 31 31 30 30 30 29 29 29 29
Wind_Direction
275 278 275 270 267 267 262 260 259 257 255 258 262 263 263 264 261 256 255 254 255 256 256 257 258 259 261 262 262 261 261 263 263 263 264 267 266 266 269 271 271 271 270
275 276 272 271 269 268 266 267 262 258 259 262 265 265 263 264 264 263 263 261 259 257 256 258 260 261 261 262 263 264 264 264 265 265 267 267 267 268 270 272 273 272 271
277 277 271 269 271 268 268 267 264 263 264 265 266 266 266 266 264 263 263 262 259 259 260 261 260 261 262 262 263 264 266 266 267 267 269 269 268 270 272 273 273 274 274
278 278 273 270 271 270 267 265 263 263 264 266 268 268 268 265 261 262 263 264 262 261 261 261 260 262 264 265 265 266 266 267 268 269 270 271 272 273 274 274 274 276 274
280 280 276 272 272 271 266 260 263 266 266 267 268 270 271 267 264 265 266 267 263 262 262 262 263 265 267 267 267 267 268 270 272 272 273 273 274 275 276 275 275 276 276
280 280 277 272 273 270 265 262 265 267 269 270 269 270 270 268 267 269 268 269 266 265 267 268 268 267 268 270 269 270 270 272 273 274 275 275 275 277 277 277 277 278 277
278 277 278 276 274 271 269 267 266 269 273 270 270 271 270 267 266 269 269 269 270 268 269 270 269 267 268 271 272 272 272 273 273 275 277 277 278 279 278 278 279 280 279
278 277 278 275 274 274 274 272 272 272 273 271 270 272 272 270 270 268 267 271 272 273 272 271 271 270 270 271 272 273 274 274 275 277 278 279 280 281 281 280 280 280 280
280 276 279 277 275 274 276 273 273 276 277 274 274 275 275 274 273 271 272 274 276 277 278 277 274 275 273 272 273 274 275 275 276 279 280 282 284 285 285 284 283 282 280
280 279 282 281 278 276 275 275 276 279 280 280 280 281 277 275 274 273 274 275 277 279 281 281 278 276 275 273 277 278 277 278 281 281 282 284 285 285 285 285 285 283 281
280 282 284 287 283 281 280 278 278 278 279 280 282 282 279 278 277 276 277 277 280 281 281 282 281 280 278 278 280 281 281 282 283 283 285 286 286 287 287 287 286 285 284
279 282 285 285 285 283 282 279 278 278 279 279 279 280 280 279 278 278 278 279 281 283 283 285 287 285 283 282 282 283 283 284 286 288 288 289 289 288 288 287 287 286 286
279 282 283 284 287 284 283 281 279 278 279 280 279 278 279 278 278 279 280 282 284 286 288 289 289 289 288 287 286 287 287 288 289 289 290 290 290 290 289 288 288 287 287
278 283 286 286 288 285 284 280 279 281 282 282 282 282 281 280 280 281 281 284 287 289 291 291 292 292 292 292 290 289 290 291 291 291 291 291 291 291 290 289 289 289 288
277 282 286 285 285 285 285 284 281 281 281 278 279 280 282 283 283 283 284 286 288 290 292 292 292 292 293 292 292 292 292 292 293 293 292 292 292 291 291 290 290 289 289
277 280 284 283 282 283 284 284 284 284 285 283 281 281 284 285 286 286 287 289 290 291 292 292 293 293 294 294 294 294 294 294 294 294 294 294 294 294 293 292 291 291 290
278 279 280 282 282 282 283 284 284 284 285 286 285 284 284 286 287 288 288 290 291 292 292 293 294 294 295 296 296 296 297 297 297 297 297 297 296 296 295 295 294 294 294
276 277 279 280 280 281 282 283 283 283 283 284 285 285 286 287 289 289 291 293 292 292 293 294 295 296 297 298 299 299 299 299 299 299 299 299 299 299 299 299 299 299 298
274 277 279 279 281 283 284 283 281 282 283 284 285 287 289 290 291 291 294 296 295 296 298 297 297 298 299 299 300 300 300 300 301 301 301 301 301 302 302 302 302 301 301
273 277 279 279 280 282 283 281 280 282 284 286 287 289 291 293 294 295 297 297 297 298 299 299 299 299 299 300 301 301 301 302 302 302 302 303 303 303 303 302 302 303 303
273 275 278 278 279 280 280 279 280 283 285 286 288 290 292 294 296 297 298 299 299 300 301 300 300 300 301 303 303 303 304 304 304 304 304 304 304 303 303 303 304 304 304
274 276 277 278 279 281 281 282 282 283 284 286 289 291 294 296 297 298 299 299 300 301 303 303 303 303 305 305 306 306 306 306 307 307 306 306 306 306 306 306 307 307 307
275 275 276 278 279 280 281 282 284 286 287 289 291 293 295 296 297 299 300 301 302 302 303 303 304 304 305 305 306 306 307 308 309 309 308 308 308 307 308 309 310 310 310
272 272 274 277 279 280 282 284 287 289 290 291 293 295 297 298 300 300 301 301 302 303 303 304 305 305 306 306 307 308 308 309 310 311 310 310 310 310 311 311 312 312 312
272 274 275 276 278 279 282 285 288 290 291 293 295 298 299 300 300 301 302 302 303 304 304 305 305 306 307 308 309 309 310 311 311 312 312 312 312 313 313 314 314 315 315
274 275 276 278 280 283 286 288 290 291 293 295 297 299 299 300 302 303 304 304 305 305 305 306 307 308 309 310 310 310 311 311 312 312 312 312 312 313 313 314 315 316 317
Height
5866 5866 5865 5866 5866 5866 5866 5867 5867 5867 5868 5868 5869 5869 5869 5869 5868 5868 5869 5870 5870 5871 5871 5872 5873 5873 5873 5874 5874 5874 5874 5874 5874 5874 5873 5873 5872 5872 5871 5870 5869 5868 5867
5863 5862 5862 5862 5862 5863 5863 5863 5863 5863 5864 5864 5864 5864 5864 5864 5864 5864 5864 5865 5865 5866 5866 5867 5867 5867 5868 5868 5868 5868 5868 5868 5868 5868 5867 5866 5866 5865 5864 5864 5863 5861 5860
5859 5859 5859 5859 5859 5859 5859 5859 5859 5860 5860 5860 5860 5860 5859 5859 5859 5859 5859 5860 5860 5860 5861 5861 5862 5862 5862 5862 5862 5862 5862 5861 5861 5861 5860 5860 5859 5858 5857 5856 5855 5854 5853
5856 5855 5855 5855 5855 5855 5855 5855 5855 5856 5856 5856 5856 5855 5855 5854 5854 5855 5855 5855 5855 5855 5855 5855 5856 5856 5856 5856 5856 5856 5855 5855 5854 5854 5853 5852 5851 5850 5849 5848 5847 5845 5844
5853 5852 5851 5851 5851 5851 5851 5851 5852 5851 5852 5852 5851 5851 5850 5850 5850 5850 5851 5851 5851 5851 5850 5850 5850 5850 5850 5850 5849 5849 5848 5848 5847 5847 5846 5844 5843 5842 5840 5839 5838 5836 5835
5849 5849 5848 5848 5848 5848 5848 5848 5848 5848 5847 5847 5847 5847 5846 5846 5846 5846 5846 5846 5845 5845 5844 5844 5844 5843 5843 5843 5843 5842 5841 5841 5840 5839 5838 5836 5835 5833 5832 5830 5828 5827 5825
5846 5846 5845 5845 5845 5845 5845 5844 5844 5843 5843 5843 5843 5842 5842 5842 5842 5841 5841 5840 5840 5839 5839 5838 5837 5837 5836 5836 5835 5835 5834 5833 5832 5831 5829 5828 5826 5825 5823 5821 5819 5817 5815
5842 5842 5842 5842 5842 5841 5841 5840 5840 5840 5839 5839 5838 5838 5838 5837 5837 5836 5836 5836 5835 5834 5833 5832 5831 5830 5829 5829 5828 5827 5827 5826 5824 5823 5822 5820 5818 5816 5814 5812 5809 5807 5805
5839 5839 5839 5838 5838 5838 5837 5837 5837 5836 5836 5835 5834 5834 5833 5832 5832 5831 5831 5831 5830 5829 5827 5826 5825 5824 5823 5822 5821 5820 5819 5818 5816 5815 5813 5811 5808 5806 5804 5802 5800 5797 5795
5836 5836 5835 5835 5834 5834 5833 5833 5833 5832 5832 5831 5830 5829 5829 5828 5827 5827 5826 5826 5824 5823 5822 5820 5819 5817 5816 5815 5814 5813 5811 5810 5808 5806 5804 5802 5799 5797 5794 5792 5790 5787 5784
5833 5832 5832 5831 5831 5830 5829 5829 5828 5828 5827 5827 5826 5825 5824 5823 5822 5822 5821 5820 5819 5817 5816 5814 5813 5811 5809 5808 5806 5805 5803 5802 5800 5798 5796 5793 5790 5787 5785 5782 5779 5777 5774
5829 5829 5828 5827 5827 5826 5825 5824 5824 5823 5822 5822 5821 5820 5819 5818 5818 5817 5816 5814 5813 5812 5810 5808 5806 5805 5803 5801 5799 5797 5796 5794 5792 5790 5787 5784 5781 5778 5775 5772 5768 5765 5762
5825 5824 5824 5823 5822 5822 5821 5820 5819 5818 5818 5817 5816 5815 5814 5813 5812 5811 5810 5809 5808 5806 5804 5802 5801 5798 5796 5794 5792 5790 5788 5786 5783 5781 5778 5774 5771 5768 5764 5761 5757 5754 5750
5820 5820 5819 5819 5818 5817 5816 5815 5815 5814 5813 5812 5811 5810 5809 5808 5807 5806 5805 5804 5802 5800 5798 5796 5794 5792 5790 5788 5785 5783 5780 5777 5774 5771 5767 5764 5761 5757 5753 5749 5745 5741 5736
5815 5815 5815 5814 5813 5813 5812 5811 5810 5809 5808 5807 5806 5805 5804 5803 5802 5801 5799 5798 5796 5794 5792 5790 5788 5785 5783 5780 5777 5774 5771 5768 5764 5761 5757 5753 5749 5745 5740 5736 5732 5727 5723
5810 5810 5809 5809 5808 5808 5807 5806 5805 5804 5803 5802 5801 5800 5799 5798 5796 5795 5793 5792 5790 5788 5786 5783 5780 5778 5775 5772 5768 5765 5761 5757 5754 5750 5745 5741 5736 5732 5727 5723 5718 5713 5709
5804 5804 5804 5804 5803 5803 5802 5801 5800 5799 5798 5797 5796 5795 5794 5792 5791 5789 5787 5785 5783 5781 5778 5775 5773 5770 5766 5763 5759 5755 5751 5747 5742 5738 5733 5729 5724 5719 5715 5710 5705 5700 5695
5799 5799 5799 5798 5798 5797 5796 5795 5795 5794 5793 5792 5791 5789 5788 5786 5784 5782 5781 5778 5776 5773 5770 5767 5764 5761 5757 5753 5749 5745 5740 5736 5731 5727 5722 5717 5712 5707 5702 5697 5693 5688 5683
5794 5793 5793 5793 5792 5792 5791 5790 5789 5788 5787 5786 5785 5783 5781 5779 5777 5775 5773 5771 5768 5765 5762 5758 5755 5751 5747 5743 5739 5735 5730 5726 5721 5716 5711 5706 5701 5696 5691 5687 5682 5677 5672
5788 5788 5788 5787 5787 5786 5785 5784 5783 5782 5781 5780 5779 5777 5775 5773 5770 5768 5766 5763 5760 5757 5753 5750 5746 5742 5738 5733 5729 5724 5720 5715 5710 5706 5701 5696 5691 5686 5681 5677 5672 5667 5662
5783 5783 5782 5782 5781 5780 5779 5779 5778 5777 5775 5774 5772 5770 5768 5766 5763 5761 5758 5755 5752 5748 5744 5740 5736 5732 5728 5723 5719 5714 5709 5705 5700 5696 5691 5686 5681 5676 5672 5667 5662 5658 5653
5778 5777 5777 5776 5776 5775 5774 5773 5772 5771 5769 5767 5766 5764 5761 5759 5756 5753 5750 5746 5743 5739 5735 5731 5726 5722 5718 5714 5709 5704 5700 5695 5691 5686 5681 5676 5672 5667 5662 5658 5653 5648 5644
5772 5772 5771 5771 5770 5769 5768 5767 5766 5764 5763 5761 5759 5757 5754 5751 5748 5745 5742 5738 5734 5730 5725 5721 5717 5713 5708 5704 5700 5695 5691 5686 5682 5677 5672 5667 5663 5658 5654 5649 5644 5640 5635
5767 5766 5766 5766 5765 5764 5762 5761 5759 5758 5756 5754 5752 5749 5746 5743 5740 5736 5733 5729 5725 5720 5716 5712 5708 5703 5699 5695 5691 5686 5682 5677 5673 5668 5664 5659 5654 5650 5645 5641 5636 5632 5627
5761 5761 5760 5760 5759 5758 5756 5755 5753 5751 5749 5746 5744 5741 5738 5735 5731 5727 5724 5719 5715 5711 5707 5703 5699 5695 5690 5686 5682 5678 5674 5669 5665 5660 5656 5651 5647 5642 5638 5634 5629 5625 5620
5756 5756 5755 5754 5753 5751 5750 5748 5746 5744 5741 5739 5736 5733 5730 5726 5723 5719 5715 5711 5706 5702 5698 5694 5690 5686 5682 5678 5674 5670 5666 5661 5657 5653 5648 5644 5639 5635 5631 5626 5622 5618 5614